This demonstration page uses our WeatherBlox Daily Observations layout. Learn more.

Left ArrowRight Arrow

Hourly Observations for April 30, 2019

Temp ( °F °C ) Dew Point ( °F °C ) Humidity (%) Winds ( mph kmh ) Pressure ( in mb ) Visibility ( mi km ) Precip ( " mm )
12:15 am 00:15 Cloudy 42 5.4 32 -0.1 68 68 NNE 10 17 30.22 1024 10 16 N/A
12:35 am 00:35 Cloudy 41 5.1 32 undefined 70 70 NNE 12 19 30.23 1024 10 16 N/A
12:55 am 00:55 Cloudy 40 4.7 32 0.2 73 73 N 14 22 30.23 1024 10 16 N/A
1:15 am 01:15 Cloudy 39 3.8 33 0.5 79 79 N 14 22 30.24 1024 10 16 N/A
1:35 am 01:35 Cloudy 38 3.5 33 0.7 82 82 N 10 17 30.23 1024 10 16 N/A
1:55 am 01:55 Cloudy 38 3.2 34 0.9 85 85 N 13 20 30.24 1024 10 16 N/A
2:15 am 02:15 Cloudy 37 3 33 0.8 86 86 N 10 17 30.23 1024 10 16 N/A
2:35 am 02:35 Cloudy with Drizzle 37 2.6 34 0.9 89 89 N 12 19 30.23 1024 10 16 N/A
2:55 am 02:55 Cloudy with Drizzle 37 2.6 34 1 89 89 N 10 17 30.22 1023 10 16 N/A
3:15 am 03:15 Cloudy with Drizzle 37 2.6 34 1.1 90 90 N 12 19 30.21 1023 10 16 N/A
3:35 am 03:35 Cloudy 37 2.5 34 1 90 90 NNE 8 13 30.18 1022 10 16 N/A
3:55 am 03:55 Cloudy 37 2.5 34 1.1 91 91 NE 14 22 30.16 1021 10 16 N/A
4:15 am 04:15 Cloudy 37 2.5 34 1 90 90 NE 9 15 30.17 1022 10 16 N/A
4:35 am 04:35 Cloudy 37 2.6 34 1.1 90 90 NE 12 19 30.16 1021 10 16 N/A
4:55 am 04:55 Cloudy 37 2.6 34 1.1 90 90 NE 12 19 30.17 1022 10 16 N/A
5:15 am 05:15 Cloudy 37 2.7 34 1.2 90 90 NE 10 17 30.18 1022 10 16 N/A
5:35 am 05:35 Cloudy 37 2.7 34 1.1 89 89 NE 7 11 30.19 1022 10 16 N/A
5:55 am 05:55 Cloudy 37 2.7 34 1.1 89 89 NE 9 15 30.20 1023 10 16 N/A
6:15 am 06:15 Cloudy with Drizzle 37 2.7 34 1.1 89 89 NNE 8 13 30.20 1023 10 16 N/A
6:35 am 06:35 Cloudy 37 2.6 34 1.1 90 90 NE 9 15 30.19 1022 10 16 N/A
6:55 am 06:55 Cloudy 37 2.6 34 1.1 90 90 NNE 9 15 30.20 1023 10 16 N/A
7:15 am 07:15 Cloudy 37 2.6 34 1.2 91 91 NE 9 15 30.19 1022 10 16 N/A
7:35 am 07:35 Cloudy 37 2.7 34 1.3 91 91 NE 10 17 30.18 1022 10 16 N/A
7:55 am 07:55 Cloudy 37 2.8 35 1.5 91 91 ENE 13 20 30.16 1021 10 16 N/A
8:15 am 08:15 Cloudy 37 3 35 1.5 90 90 ENE 10 17 30.14 1021 10 16 N/A
8:35 am 08:35 Cloudy 38 3.6 35 1.9 89 89 E 16 26 30.12 1020 10 16 N/A
8:55 am 08:55 Cloudy 39 4 36 2 87 87 E 15 24 30.11 1020 10 16 N/A
9:15 am 09:15 Cloudy 39 4.1 36 2 86 86 E 15 24 30.10 1019 10 16 N/A
9:35 am 09:35 Cloudy 40 4.4 36 2.1 85 85 E 15 24 30.09 1019 10 16 N/A
9:55 am 09:55 Cloudy 41 5.1 37 2.5 83 83 E 12 19 30.08 1019 10 16 N/A
10:15 am 10:15 Cloudy 42 5.5 36 2.3 80 80 E 12 19 30.08 1019 10 16 N/A
10:35 am 10:35 Cloudy 42 5.5 36 2.3 80 80 E 10 17 30.08 1019 10 16 N/A
10:55 am 10:55 Cloudy 42 5.6 37 2.5 81 81 E 10 17 30.08 1019 10 16 N/A
11:15 am 11:15 Cloudy 43 6 37 2.6 79 79 E 6 9 30.08 1019 10 16 N/A
11:35 am 11:35 Cloudy 43 6.3 37 2.9 79 79 ENE 7 11 30.08 1018 10 16 N/A
11:55 am 11:55 Cloudy 44 6.5 38 3.1 79 79 E 9 15 30.06 1018 10 16 N/A
12:15 pm 12:15 Cloudy 44 6.9 37 3 76 76 E 8 13 30.05 1018 10 16 N/A
12:35 pm 12:35 Cloudy 45 7 38 3.1 76 76 ENE 8 13 30.03 1017 10 16 N/A
12:55 pm 12:55 Cloudy 45 7.3 38 3.5 77 77 E 8 13 30.02 1016 10 16 N/A
1:15 pm 13:15 Cloudy 45 7.2 38 3.6 78 78 ENE 10 17 30.01 1016 10 16 N/A
1:35 pm 13:35 Cloudy 46 7.8 39 3.7 76 76 ENE 14 22 29.98 1015 10 16 N/A
1:55 pm 13:55 Cloudy 45 7 38 3.3 78 78 E 10 17 30.00 1016 10 16 N/A
2:15 pm 14:15 Cloudy with Light Rain 44 6.9 39 3.7 80 80 ENE 10 17 29.98 1015 10 16 N/A
2:35 pm 14:35 Cloudy with Light Rain 45 7.1 40 4.2 82 82 ENE 13 20 29.98 1015 10 16 N/A
2:55 pm 14:55 Cloudy 45 7 39 4.1 82 82 ENE 10 17 29.98 1015 10 16 N/A
3:15 pm 15:15 Cloudy with Light Rain 44 6.8 39 4 83 83 NE 13 20 29.97 1015 10 16 N/A
3:35 pm 15:35 Cloudy 44 6.7 39 4 83 83 NE 10 17 29.96 1015 10 16 N/A
3:55 pm 15:55 Cloudy 44 6.7 39 4.1 84 84 NE 10 17 29.96 1015 10 16 N/A
4:15 pm 16:15 Cloudy 44 6.5 39 4 84 84 NE 9 15 29.96 1015 10 16 N/A
4:35 pm 16:35 Cloudy 44 6.5 39 3.8 83 83 NE 9 15 29.97 1015 10 16 N/A
4:55 pm 16:55 Cloudy with Mist and Fog 43 6.3 39 3.9 85 85 NE 12 19 29.97 1015 5 8 N/A
5:15 pm 17:15 Cloudy with Mist and Fog 43 6.3 40 4.3 87 87 NE 13 20 29.97 1015 5 8 N/A
5:35 pm 17:35 Cloudy with Mist and Fog 43 6.1 40 4.5 90 90 NNE 13 20 29.97 1015 3 5 N/A
5:55 pm 17:55 Cloudy with Drizzle 43 6.1 41 4.8 91 91 NNE 9 15 29.97 1015 3 5 0.01 0.25
6:15 pm 18:15 Cloudy with Rain 42 5.6 40 4.4 92 92 NNE 10 17 29.97 1015 3 4 N/A
6:35 pm 18:35 Cloudy with Rain 42 5.5 40 4.2 91 91 N 12 19 29.98 1015 3 5 0.01 0.25
6:55 pm 18:55 Cloudy with Light Rain 41 5.2 39 4 92 92 N 13 20 29.98 1015 2 3 0.05 1.27
7:15 pm 19:15 Cloudy with Light Rain 41 5.1 39 4 93 93 N 13 20 29.98 1015 5 8 0.01 0.25
7:35 pm 19:35 Cloudy with Drizzle 41 5.1 39 4 93 93 N 10 17 30.00 1016 7 11 0.02 0.51
7:55 pm 19:55 Cloudy with Light Rain 42 5.3 39 4.1 92 92 N 10 17 30.00 1016 10 16 0.02 0.51
8:15 pm 20:15 Cloudy with Rain 42 5.5 40 4.2 91 91 NNE 14 22 29.97 1015 7 11 0.02 0.51
8:35 pm 20:35 Cloudy with Light Rain 42 5.5 40 4.3 92 92 N 12 19 29.99 1016 10 16 0.03 0.76
8:55 pm 20:55 Cloudy 42 5.6 40 4.3 91 91 NNE 13 20 29.99 1016 10 16 0.03 0.76
9:15 pm 21:15 Cloudy 42 5.6 39 4.1 90 90 N 10 17 30.01 1016 10 16 N/A
9:35 pm 21:35 Cloudy 42 5.6 39 4 90 90 N 12 19 30.02 1017 10 16 N/A
9:55 pm 21:55 Cloudy 42 5.5 39 4 90 90 N 12 19 30.02 1017 10 16 N/A
10:15 pm 22:15 Cloudy 42 5.3 39 3.8 90 90 N 9 15 30.03 1017 10 16 N/A
10:35 pm 22:35 Cloudy 41 5.2 39 3.7 90 90 N 14 22 30.02 1016 10 16 N/A
10:55 pm 22:55 Cloudy 41 5.1 38 3.6 90 90 N 13 20 30.02 1016 10 16 N/A
11:15 pm 23:15 Cloudy 41 5.2 39 3.7 90 90 NNE 12 19 30.02 1016 10 16 N/A
11:35 pm 23:35 Cloudy 41 5.2 38 3.6 90 90 NNE 8 13 30.02 1016 10 16 N/A
11:55 pm 23:55 Cloudy 41 5.2 38 3.5 89 89 NNE 12 19 30.02 1016 10 16 N/A

Powered by AerisWeather